Location: La Oliva
(42.2466°N, 2.9955°E)
Time: 07:18:16
(UTC+00:00)

SME Rocket - Pass Details

Date: 22 April 2021
Orbit: 550 x 2651 km, 99.9° (Epoch: 07 May)

Event Time Altitude Azimuth Distance (km) Brightness Sun altitude
Rises 19:35:45 0° 8° (N) 2,791 6.7 -10.7°
Reaches altitude 10° 19:37:43 10° 2° (N) 1,964 6.0 -11.1°
Maximum altitude 19:41:38 48° 288° (WNW) 936 4.5 -11.7°
Drops below altitude 10° 19:46:52 10° 215° (SW) 2,619 6.3 -12.5°
Sets 19:49:50 0° 211° (SSW) 3,848 7.1 -13.0°
